TimeEST,TemperatureF,Dew PointF,Humidity,Sea Level PressureIn,VisibilityMPH,Wind Direction,Wind SpeedMPH,Gust SpeedMPH,PrecipitationIn,Events,Conditions,WindDirDegrees,DateUTC
12:15 AM,30.2,30.2,100,29.70,1.2,West,6.9,-,N/A,,Mostly Cloudy,280,2013-02-28 05:15:00
12:35 AM,28.4,28.4,100,29.69,1.8,West,15.0,-,N/A,,Mostly Cloudy,280,2013-02-28 05:35:00
12:55 AM,28.4,28.4,100,29.68,4.0,West,11.5,-,N/A,,Clear,280,2013-02-28 05:55:00
1:15 AM,28.4,28.4,100,29.69,8.0,West,10.4,-,N/A,,Clear,280,2013-02-28 06:15:00
1:35 AM,28.4,28.4,100,29.70,10.0,WNW,8.1,-,N/A,,Unknown,290,2013-02-28 06:35:00
2:15 AM,28.4,28.4,100,29.69,10.0,West,5.8,-,N/A,,Scattered Clouds,270,2013-02-28 07:15:00
2:35 AM,28.4,28.4,100,29.68,10.0,West,6.9,-,N/A,,Unknown,260,2013-02-28 07:35:00
2:55 AM,28.4,28.4,100,29.68,10.0,West,4.6,-,N/A,,Unknown,280,2013-02-28 07:55:00
3:15 AM,28.4,28.4,100,29.67,10.0,West,4.6,-,N/A,,Unknown,270,2013-02-28 08:15:00
3:35 AM,28.4,28.4,100,29.67,6.0,WNW,4.6,-,N/A,,Unknown,300,2013-02-28 08:35:00
3:55 AM,28.4,28.4,100,29.66,2.5,WNW,8.1,-,N/A,,Unknown,290,2013-02-28 08:55:00
4:15 AM,28.4,28.4,100,29.65,5.0,West,11.5,-,N/A,,Unknown,270,2013-02-28 09:15:00
4:35 AM,28.4,28.4,100,29.66,10.0,West,8.1,-,N/A,,Unknown,280,2013-02-28 09:35:00
4:55 AM,28.4,28.4,100,29.67,9.0,WNW,12.7,-,N/A,,Unknown,290,2013-02-28 09:55:00
5:15 AM,28.4,28.4,100,29.67,10.0,West,13.8,-,N/A,,Unknown,270,2013-02-28 10:15:00
5:35 AM,28.4,28.4,100,29.67,8.0,West,8.1,-,N/A,,Unknown,270,2013-02-28 10:35:00
5:55 AM,28.4,28.4,100,29.67,8.0,West,11.5,-,N/A,,Unknown,280,2013-02-28 10:55:00
6:15 AM,28.4,28.4,100,29.67,9.0,West,11.5,-,N/A,,Unknown,280,2013-02-28 11:15:00
6:35 AM,28.4,28.4,100,29.68,9.0,West,12.7,-,N/A,,Unknown,280,2013-02-28 11:35:00
6:55 AM,28.4,26.6,93,29.68,8.0,West,8.1,-,N/A,,Unknown,270,2013-02-28 11:55:00
7:15 AM,26.6,26.6,100,29.69,10.0,West,8.1,-,N/A,,Partly Cloudy,270,2013-02-28 12:15:00
7:35 AM,26.6,26.6,100,29.69,10.0,West,9.2,-,N/A,,Partly Cloudy,270,2013-02-28 12:35:00
7:55 AM,26.6,26.6,100,29.70,9.0,West,12.7,-,N/A,,Unknown,270,2013-02-28 12:55:00
8:15 AM,26.6,26.6,100,29.70,3.0,West,10.4,-,N/A,,Unknown,270,2013-02-28 13:15:00
8:35 AM,26.6,26.6,100,29.71,4.0,West,6.9,-,N/A,,Clear,270,2013-02-28 13:35:00
9:15 AM,26.6,26.6,100,29.72,5.0,West,6.9,-,N/A,,Unknown,280,2013-02-28 14:15:00
9:35 AM,26.6,26.6,100,29.72,3.0,West,10.4,-,N/A,,Unknown,280,2013-02-28 14:35:00
9:55 AM,26.6,26.6,100,29.72,6.0,WNW,12.7,-,N/A,,Unknown,290,2013-02-28 14:55:00
10:15 AM,26.6,26.6,100,29.73,6.0,West,9.2,-,N/A,,Unknown,280,2013-02-28 15:15:00
10:35 AM,26.6,26.6,100,29.73,9.0,WNW,8.1,-,N/A,,Unknown,290,2013-02-28 15:35:00
10:55 AM,26.6,26.6,100,29.73,7.0,West,10.4,-,N/A,,Unknown,270,2013-02-28 15:55:00
11:15 AM,26.6,26.6,100,29.74,8.0,West,10.4,-,N/A,,Unknown,280,2013-02-28 16:15:00
11:35 AM,26.6,24.8,93,29.75,7.0,West,12.7,-,N/A,,Unknown,270,2013-02-28 16:35:00
11:55 AM,28.4,24.8,86,29.74,10.0,WSW,12.7,-,N/A,,Partly Cloudy,250,2013-02-28 16:55:00
12:15 PM,30.2,24.8,80,29.74,10.0,West,6.9,-,N/A,,Scattered Clouds,270,2013-02-28 17:15:00
12:35 PM,28.4,24.8,86,29.75,10.0,West,8.1,-,N/A,,Mostly Cloudy,270,2013-02-28 17:35:00
12:55 PM,28.4,24.8,86,29.74,10.0,West,12.7,-,N/A,,Mostly Cloudy,270,2013-02-28 17:55:00
1:15 PM,28.4,24.8,86,29.74,10.0,West,9.2,-,N/A,,Mostly Cloudy,280,2013-02-28 18:15:00
1:55 PM,30.2,26.6,86,29.74,10.0,WNW,10.4,-,N/A,,Mostly Cloudy,290,2013-02-28 18:55:00
2:15 PM,30.2,26.6,86,29.74,10.0,West,11.5,-,N/A,,Mostly Cloudy,280,2013-02-28 19:15:00
2:35 PM,30.2,26.6,86,29.74,10.0,WNW,12.7,-,N/A,,Overcast,290,2013-02-28 19:35:00
2:55 PM,28.4,26.6,93,29.75,10.0,West,10.4,-,N/A,,Mostly Cloudy,260,2013-02-28 19:55:00
3:15 PM,28.4,26.6,93,29.76,10.0,West,9.2,-,N/A,,Mostly Cloudy,280,2013-02-28 20:15:00
3:35 PM,28.4,28.4,100,29.76,10.0,Variable,5.8,-,N/A,,Partly Cloudy,0,2013-02-28 20:35:00
4:15 PM,28.4,26.6,93,29.76,10.0,West,6.9,-,N/A,,Unknown,280,2013-02-28 21:15:00
4:35 PM,28.4,26.6,93,29.77,10.0,West,13.8,-,N/A,,Unknown,270,2013-02-28 21:35:00
4:55 PM,28.4,26.6,93,29.78,10.0,Variable,6.9,-,N/A,,Unknown,0,2013-02-28 21:55:00
5:15 PM,28.4,28.4,100,29.78,10.0,West,10.4,-,N/A,,Unknown,260,2013-02-28 22:15:00
5:35 PM,28.4,28.4,100,29.79,10.0,West,11.5,-,N/A,,Unknown,260,2013-02-28 22:35:00
5:55 PM,28.4,26.6,93,29.81,10.0,West,8.1,-,N/A,,Unknown,260,2013-02-28 22:55:00
6:15 PM,28.4,26.6,93,29.82,10.0,West,9.2,-,N/A,,Unknown,260,2013-02-28 23:15:00
6:35 PM,28.4,26.6,93,29.82,10.0,West,9.2,-,N/A,,Unknown,280,2013-02-28 23:35:00
6:55 PM,28.4,26.6,93,29.82,9.0,WNW,8.1,-,N/A,,Unknown,290,2013-02-28 23:55:00
7:15 PM,26.6,26.6,100,29.83,7.0,West,9.2,-,N/A,,Unknown,270,2013-03-01 00:15:00
7:35 PM,26.6,26.6,100,29.82,8.0,West,8.1,-,N/A,,Unknown,270,2013-03-01 00:35:00
7:55 PM,26.6,26.6,100,29.83,7.0,West,6.9,-,N/A,,Unknown,280,2013-03-01 00:55:00
8:15 PM,26.6,26.6,100,29.84,6.0,West,12.7,-,N/A,,Unknown,270,2013-03-01 01:15:00
8:35 PM,26.6,26.6,100,29.84,5.0,WNW,8.1,-,N/A,,Clear,290,2013-03-01 01:35:00
8:55 PM,26.6,26.6,100,29.83,5.0,West,10.4,-,N/A,,Clear,280,2013-03-01 01:55:00
9:15 PM,26.6,26.6,100,29.84,4.0,West,11.5,-,N/A,,Clear,280,2013-03-01 02:15:00
9:55 PM,26.6,26.6,100,29.83,4.0,WNW,10.4,-,N/A,,Clear,290,2013-03-01 02:55:00
10:15 PM,26.6,26.6,100,29.84,3.0,West,9.2,-,N/A,,Unknown,280,2013-03-01 03:15:00
10:35 PM,26.6,26.6,100,29.84,3.0,West,12.7,-,N/A,,Unknown,260,2013-03-01 03:35:00
10:55 PM,26.6,26.6,100,29.85,3.0,West,6.9,-,N/A,,Clear,260,2013-03-01 03:55:00
11:55 PM,26.6,26.6,100,29.84,2.5,WNW,9.2,-,N/A,,Clear,290,2013-03-01 04:55:00